�������l�o���
Date,Time,MP-1(��Sv/h),MP-2(��Sv/h),MP-3(��Sv/h),MP-4(��Sv/h),MP-5(��Sv/h),MP-6(��Sv/h),MP-7(��Sv/h),MP-8(��Sv/h),����,����(m/s),���J
2020/06/19,00:00,0.719,1.031,0.659,1.264,0.912,0.408,0.705,0.655,��,1.5,��
2020/06/19,00:10,0.720,1.032,0.659,1.266,0.910,0.408,0.705,0.656,��,2.0,��
2020/06/19,00:20,0.721,1.031,0.659,1.266,0.911,0.408,0.704,0.656,��,1.7,��
2020/06/19,00:30,0.721,1.035,0.661,1.266,0.913,0.408,0.703,0.655,��쐼,1.2,��
2020/06/19,00:40,0.720,1.034,0.660,1.265,0.912,0.407,0.706,0.656,�쐼,0.9,��
2020/06/19,00:50,0.722,1.034,0.660,1.268,0.911,0.408,0.704,0.658,-,CALM,��
2020/06/19,01:00,0.722,1.035,0.660,1.266,0.912,0.408,0.705,0.657,�k�k��,1.2,��
2020/06/19,01:10,0.721,1.033,0.659,1.266,0.913,0.410,0.705,0.656,���k��,1.1,��
2020/06/19,01:20,0.720,1.033,0.659,1.264,0.911,0.407,0.707,0.656,�k��,1.9,��
2020/06/19,01:30,0.721,1.034,0.661,1.265,0.911,0.407,0.705,0.659,�k��,2.3,��
2020/06/19,01:40,0.722,1.034,0.660,1.267,0.911,0.408,0.705,0.654,�k��,3.2,��
2020/06/19,01:50,0.721,1.032,0.659,1.265,0.911,0.408,0.706,0.656,�k�k��,3.4,��
2020/06/19,02:00,0.721,1.034,0.658,1.265,0.911,0.409,0.707,0.657,�k�k��,3.7,��
2020/06/19,02:10,0.720,1.033,0.660,1.264,0.913,0.409,0.706,0.655,�k�k��,4.0,��
2020/06/19,02:20,0.719,1.032,0.662,1.266,0.911,0.407,0.706,0.656,�k�k��,5.0,��
2020/06/19,02:30,0.721,1.034,0.659,1.263,0.913,0.407,0.707,0.658,�k�k��,4.1,��
2020/06/19,02:40,0.721,1.032,0.660,1.265,0.913,0.407,0.705,0.656,�k�k��,4.3,��
2020/06/19,02:50,0.721,1.033,0.660,1.265,0.911,0.407,0.705,0.656,�k�k��,4.8,��
2020/06/19,03:00,0.721,1.033,0.660,1.265,0.913,0.408,0.706,0.656,�k�k��,4.9,��
2020/06/19,03:10,0.721,1.032,0.660,1.264,0.912,0.408,0.704,0.655,�k�k��,5.0,��
2020/06/19,03:20,0.723,1.032,0.658,1.266,0.912,0.408,0.706,0.656,�k�k��,5.1,��
2020/06/19,03:30,0.722,1.032,0.658,1.265,0.912,0.408,0.706,0.657,�k,4.6,��
2020/06/19,03:40,0.722,1.033,0.661,1.266,0.912,0.407,0.705,0.656,�k,5.3,��
2020/06/19,03:50,0.723,1.033,0.659,1.264,0.911,0.407,0.705,0.657,�k,5.5,��
2020/06/19,04:00,0.722,1.032,0.659,1.268,0.911,0.406,0.705,0.654,�k�k��,5.3,��
2020/06/19,04:10,0.722,1.033,0.662,1.264,0.912,0.406,0.704,0.656,�k�k��,5.2,��
2020/06/19,04:20,0.721,1.029,0.659,1.266,0.908,0.406,0.703,0.657,�k�k��,5.7,��
2020/06/19,04:30,0.720,1.033,0.658,1.262,0.911,0.405,0.704,0.657,�k�k��,4.9,��
2020/06/19,04:40,0.721,1.030,0.660,1.266,0.912,0.406,0.703,0.655,�k�k��,5.0,��
2020/06/19,04:50,0.723,1.031,0.660,1.265,0.909,0.405,0.704,0.656,�k�k��,4.3,��
2020/06/19,05:00,0.721,1.031,0.660,1.264,0.911,0.404,0.703,0.657,�k�k��,5.3,�L
2020/06/19,05:10,0.720,1.030,0.659,1.263,0.908,0.406,0.703,0.657,�k�k��,5.6,�L
2020/06/19,05:20,0.723,1.031,0.659,1.264,0.910,0.405,0.703,0.658,�k,4.7,�L
2020/06/19,05:30,0.721,1.033,0.660,1.265,0.908,0.407,0.704,0.657,�k,5.4,�L
2020/06/19,05:40,0.721,1.030,0.661,1.267,0.912,0.406,0.706,0.657,�k,5.7,�L
2020/06/19,05:50,0.722,1.031,0.661,1.264,0.912,0.408,0.704,0.657,�k,4.6,�L
2020/06/19,06:00,0.720,1.030,0.661,1.266,0.912,0.408,0.705,0.656,�k,3.5,�L
2020/06/19,06:10,0.720,1.031,0.659,1.267,0.910,0.407,0.702,0.656,�k�k��,3.4,�L
2020/06/19,06:20,0.722,1.030,0.661,1.265,0.909,0.408,0.704,0.656,�k��,4.3,�L
2020/06/19,06:30,0.720,1.030,0.662,1.268,0.911,0.408,0.705,0.655,�k�k��,4.0,�L
2020/06/19,06:40,0.722,1.028,0.660,1.266,0.913,0.408,0.705,0.656,�k�k��,4.6,�L
2020/06/19,06:50,0.720,1.028,0.660,1.264,0.910,0.408,0.703,0.657,�k�k��,4.6,�L
2020/06/19,07:00,0.719,1.030,0.660,1.265,0.910,0.408,0.701,0.657,�k�k��,3.5,�L
2020/06/19,07:10,0.721,1.028,0.661,1.263,0.911,0.408,0.703,0.657,�k�k��,3.3,�L
2020/06/19,07:20,0.721,1.030,0.660,1.265,0.910,0.408,0.704,0.658,�k,3.9,�L
2020/06/19,07:30,0.720,1.030,0.662,1.265,0.910,0.408,0.704,0.656,�k�k��,4.3,�L
2020/06/19,07:40,0.720,1.027,0.661,1.265,0.907,0.408,0.702,0.655,�k�k��,4.1,�L
2020/06/19,07:50,0.720,1.027,0.659,1.265,0.909,0.408,0.703,0.655,�k�k��,3.9,�L
2020/06/19,08:00,0.720,1.023,0.660,1.260,0.906,0.404,0.701,0.656,�k�k��,4.0,�L
2020/06/19,08:10,0.717,1.021,0.659,1.264,0.907,0.403,0.701,0.654,�k�k��,4.3,�L
2020/06/19,08:20,0.717,1.018,0.658,1.262,0.903,0.402,0.702,0.652,�k�k��,5.0,�L
2020/06/19,08:30,0.714,1.011,0.657,1.256,0.897,0.405,0.698,0.651,-,CALM,�L
2020/06/19,08:40,0.713,1.005,0.655,1.246,0.890,0.404,0.695,0.651,�k�k��,3.9,�L
2020/06/19,08:50,0.710,1.000,0.651,1.243,0.888,0.405,0.696,0.647,�k,3.6,�L
2020/06/19,09:00,0.710,0.996,0.651,1.242,0.883,0.405,0.695,0.647,�k,4.1,�L
2020/06/19,09:10,0.705,0.988,0.647,1.231,0.877,0.402,0.693,0.644,�k�k��,7.2,�L
2020/06/19,09:20,0.697,0.971,0.641,1.208,0.862,0.399,0.687,0.640,�k,5.1,�L
2020/06/19,09:30,0.700,0.970,0.643,1.213,0.865,0.398,0.685,0.643,�k��,5.7,�L
2020/06/19,09:40,0.700,0.972,0.643,1.213,0.867,0.400,0.688,0.643,�k��,5.2,�L
2020/06/19,09:50,0.699,0.975,0.642,1.213,0.867,0.399,0.689,0.640,�k��,4.1,�L
2020/06/19,10:00,0.699,0.972,0.640,1.214,0.866,0.398,0.687,0.643,�k�k��,2.3,�L
2020/06/19,10:10,0.695,0.971,0.642,1.215,0.865,0.398,0.686,0.642,�k,1.7,�L
2020/06/19,10:20,0.697,0.972,0.641,1.214,0.863,0.398,0.688,0.640,���k��,0.8,�L
2020/06/19,10:30,0.695,0.971,0.639,1.213,0.861,0.398,0.688,0.641,�k��,0.9,�L
2020/06/19,10:40,0.695,0.972,0.639,1.214,0.865,0.399,0.687,0.640,�k��,1.5,�L
2020/06/19,10:50,0.693,0.973,0.638,1.210,0.864,0.398,0.686,0.642,���k��,1.2,�L
2020/06/19,11:00,0.694,0.970,0.636,1.211,0.860,0.396,0.687,0.642,-,CALM,�L
2020/06/19,11:10,0.691,0.972,0.637,1.210,0.863,0.395,0.686,0.639,�k�k��,2.2,�L
2020/06/19,11:20,0.693,0.972,0.637,1.209,0.861,0.395,0.685,0.640,�k��,2.5,�L
2020/06/19,11:30,0.692,0.973,0.637,1.210,0.860,0.395,0.686,0.640,���k��,2.5,�L
2020/06/19,11:40,0.691,0.969,0.636,1.210,0.861,0.396,0.686,0.641,���k��,2.0,��
2020/06/19,11:50,0.691,0.974,0.636,1.210,0.857,0.394,0.686,0.640,�k��,2.3,��
2020/06/19,12:00,0.690,0.972,0.634,1.209,0.860,0.395,0.685,0.640,�k��,2.2,��
2020/06/19,12:10,0.690,0.974,0.635,1.209,0.857,0.393,0.687,0.640,�k�k��,1.9,��
2020/06/19,12:20,0.692,0.976,0.635,1.206,0.859,0.392,0.687,0.641,�k�k��,2.3,��
2020/06/19,12:30,0.691,0.977,0.634,1.207,0.856,0.394,0.687,0.640,�k,2.0,��
2020/06/19,12:40,0.690,0.977,0.633,1.208,0.861,0.394,0.688,0.640,�k�k��,2.0,��
2020/06/19,12:50,0.690,0.976,0.634,1.208,0.859,0.394,0.688,0.642,�k�k��,2.6,��
2020/06/19,13:00,0.688,0.971,0.633,1.207,0.861,0.393,0.686,0.641,�k,2.6,��
2020/06/19,13:10,0.690,0.975,0.632,1.211,0.860,0.393,0.686,0.641,�k,2.6,��
2020/06/19,13:20,0.689,0.976,0.633,1.208,0.858,0.392,0.688,0.641,�k,2.9,��
2020/06/19,13:30,0.690,0.973,0.634,1.210,0.859,0.395,0.687,0.641,�k�k��,3.5,�L
2020/06/19,13:40,0.689,0.972,0.635,1.210,0.858,0.393,0.689,0.640,�k�k��,2.9,��
2020/06/19,13:50,0.690,0.975,0.634,1.211,0.861,0.394,0.689,0.641,�k,3.4,��
2020/06/19,14:00,0.692,0.974,0.634,1.211,0.860,0.395,0.688,0.641,�k,3.1,��
2020/06/19,14:10,0.692,0.973,0.634,1.209,0.861,0.395,0.689,0.642,�k,3.1,�L
2020/06/19,14:20,0.690,0.974,0.634,1.210,0.861,0.393,0.688,0.640,�k,3.1,�L
2020/06/19,14:30,0.692,0.973,0.635,1.212,0.862,0.395,0.691,0.642,�k,2.8,��
2020/06/19,14:40,0.693,0.973,0.635,1.210,0.864,0.395,0.689,0.641,�k�k��,2.3,�L
2020/06/19,14:50,0.692,0.979,0.634,1.212,0.862,0.394,0.690,0.642,�k�k��,2.0,�L
2020/06/19,15:00,0.693,0.978,0.635,1.211,0.862,0.393,0.690,0.641,�k,2.2,�L
2020/06/19,15:10,0.693,0.976,0.637,1.213,0.862,0.395,0.690,0.643,�k,2.9,�L
2020/06/19,15:20,0.694,0.976,0.636,1.211,0.864,0.395,0.690,0.642,�k,3.3,�L
2020/06/19,15:30,0.693,0.976,0.638,1.211,0.864,0.397,0.690,0.641,�k,3.1,�L
2020/06/19,15:40,0.693,0.978,0.639,1.212,0.864,0.396,0.690,0.642,�k,3.3,�L
2020/06/19,15:50,0.693,0.979,0.639,1.211,0.865,0.396,0.690,0.642,�k,3.6,��
2020/06/19,16:00,0.692,0.982,0.638,1.213,0.864,0.393,0.690,0.642,�k,3.9,��
2020/06/19,16:10,0.693,0.981,0.638,1.212,0.862,0.396,0.691,0.642,�k�k��,4.8,��
2020/06/19,16:20,0.693,0.980,0.637,1.211,0.866,0.393,0.690,0.640,�k,4.4,�L
2020/06/19,16:30,0.692,0.980,0.637,1.211,0.861,0.396,0.689,0.643,�k�k��,5.1,�L
2020/06/19,16:40,0.692,0.981,0.637,1.214,0.863,0.396,0.689,0.642,�k�k��,6.1,�L
2020/06/19,16:50,0.694,0.979,0.639,1.211,0.862,0.395,0.691,0.641,�k�k��,6.2,�L
2020/06/19,17:00,0.694,0.977,0.636,1.211,0.862,0.396,0.689,0.641,�k�k��,6.8,�L
2020/06/19,17:10,0.692,0.976,0.637,1.211,0.861,0.396,0.688,0.640,�k�k��,4.7,�L
2020/06/19,17:20,0.692,0.976,0.638,1.210,0.861,0.396,0.689,0.641,�k,4.2,�L
2020/06/19,17:30,0.690,0.974,0.636,1.211,0.859,0.396,0.689,0.641,�k�k��,4.7,�L
2020/06/19,17:40,0.690,0.974,0.635,1.210,0.858,0.397,0.690,0.641,�k,5.1,�L
2020/06/19,17:50,0.691,0.974,0.636,1.207,0.858,0.398,0.687,0.639,�k,5.6,�L
2020/06/19,18:00,0.689,0.973,0.636,1.206,0.858,0.396,0.689,0.639,�k,5.4,�L
2020/06/19,18:10,0.690,0.972,0.636,1.207,0.855,0.395,0.687,0.639,�k,4.5,�L
2020/06/19,18:20,0.688,0.967,0.636,1.199,0.850,0.396,0.685,0.637,�k�k��,8.3,�L
2020/06/19,18:30,0.686,0.961,0.635,1.197,0.849,0.395,0.685,0.637,�k,6.1,�L
2020/06/19,18:40,0.686,0.962,0.633,1.193,0.848,0.396,0.683,0.635,�k��,3.9,�L
2020/06/19,18:50,0.684,0.957,0.631,1.184,0.845,0.394,0.681,0.637,�k��,7.7,�L
2020/06/19,19:00,0.681,0.957,0.630,1.186,0.844,0.394,0.682,0.634,�k�k��,5.0,�L
2020/06/19,19:10,0.681,0.956,0.629,1.183,0.844,0.394,0.682,0.635,�k��,2.8,�L
2020/06/19,19:20,0.682,0.956,0.631,1.184,0.844,0.395,0.681,0.635,�k,2.8,�L
2020/06/19,19:30,0.681,0.956,0.631,1.186,0.845,0.394,0.681,0.636,�k�k��,2.2,�L
2020/06/19,19:40,0.683,0.957,0.628,1.185,0.844,0.394,0.681,0.635,�k��,1.9,�L
2020/06/19,19:50,0.683,0.958,0.630,1.184,0.843,0.393,0.680,0.635,�k�k��,2.3,�L
2020/06/19,20:00,0.681,0.959,0.628,1.186,0.844,0.394,0.680,0.636,�k�k��,4.2,�L
2020/06/19,20:10,0.679,0.956,0.629,1.182,0.839,0.392,0.681,0.635,�k��,4.5,�L
2020/06/19,20:20,0.680,0.954,0.629,1.182,0.841,0.393,0.680,0.636,�k�k��,4.4,�L
2020/06/19,20:30,0.680,0.957,0.626,1.179,0.841,0.392,0.677,0.634,�k�k��,4.0,�L
2020/06/19,20:40,0.678,0.953,0.628,1.179,0.839,0.393,0.677,0.634,�k�k��,4.1,�L
2020/06/19,20:50,0.679,0.952,0.627,1.179,0.838,0.393,0.678,0.634,�k,3.6,�L
2020/06/19,21:00,0.678,0.952,0.628,1.180,0.839,0.391,0.677,0.635,�k,2.6,�L
2020/06/19,21:10,0.679,0.953,0.626,1.178,0.840,0.390,0.677,0.633,�k,3.5,�L
2020/06/19,21:20,0.677,0.955,0.626,1.180,0.840,0.392,0.677,0.634,�k,3.7,�L
2020/06/19,21:30,0.677,0.953,0.625,1.178,0.840,0.391,0.678,0.634,�k�k��,4.0,�L
2020/06/19,21:40,0.679,0.953,0.625,1.181,0.840,0.390,0.679,0.634,�k�k��,3.9,�L
2020/06/19,21:50,0.678,0.953,0.625,1.181,0.840,0.391,0.679,0.636,�k�k��,3.8,�L
2020/06/19,22:00,0.680,0.954,0.626,1.182,0.842,0.391,0.679,0.636,�k�k��,4.1,�L
2020/06/19,22:10,0.679,0.954,0.626,1.179,0.842,0.392,0.678,0.635,�k�k��,4.7,�L
2020/06/19,22:20,0.678,0.955,0.624,1.181,0.842,0.392,0.680,0.634,�k,4.4,��
2020/06/19,22:30,0.681,0.958,0.625,1.180,0.843,0.391,0.677,0.635,�k,5.8,��
2020/06/19,22:40,0.680,0.959,0.626,1.181,0.844,0.391,0.677,0.636,�k,5.6,��
2020/06/19,22:50,0.680,0.957,0.623,1.179,0.842,0.391,0.679,0.636,�k,6.1,�L
2020/06/19,23:00,0.678,0.955,0.626,1.182,0.842,0.390,0.679,0.635,�k,6.1,�L
2020/06/19,23:10,0.678,0.955,0.624,1.182,0.843,0.390,0.679,0.635,�k�k��,6.3,�L
2020/06/19,23:20,0.679,0.955,0.626,1.181,0.842,0.390,0.678,0.634,�k�k��,6.6,��
2020/06/19,23:30,0.678,0.955,0.625,1.179,0.843,0.389,0.679,0.634,�k,4.8,��
2020/06/19,23:40,0.677,0.954,0.623,1.183,0.843,0.389,0.679,0.636,�k,5.0,��
2020/06/19,23:50,0.676,0.954,0.625,1.184,0.843,0.390,0.677,0.637,�k,4.6,��
